TIANMU-1 14

Last updated on Mon Jun 22 2026 00:02:46 GMT+0000 (Coordinated Universal Time)

1 58648U 23205D 26172.49764391 .00004278 00000+0 16465-3 0 9999 2 58648 97.3401 193.1933 0006382 328.1981 31.8872 15.26895930138163
UTC large
Height (km)
Speed (km/s)
/
Latitude / Longitude
Inclination (degrees)
Orbital Period (minutes)
Azimuth
Elevation
Range (km)
Doppler Factor

Next 0 passes for location: London (51.5072 / 0.1276)

No passes found over London.
TIANMU-1 14